Date String (YYYY-MM-DD hh:mm:ss) UTC,Instrument flags,Ambient pressure (hPa),Sample flow (lpm),Bypass flow (lpm),Sample temperature (°C),Ambient temperature (°C),ASC tube jacket temperature (°C),LED temperature (°C),Box temperature (°C),Sample RH (%),Span deviation,Mass concentration (μg/m³),Mass concentration (μg/m³),Mass concentration (μg/m³)
DateTimeUTC,F1_M11,P_M11,Q1_M11,Q2_M11,T1_M11,T2_M11,T3_M11,T4_M11,T5_M11,U1_M11,ZSPAN_M11,X0_M11,X2_M11,X1_M11
2022-02-03 06:00:00,,0828.7,5.01,0.00,22.3,21.3,00.0,31.4,23.9,04.3,0000.0,0005.06,0003.83,0003.61
2022-02-03 06:01:00,,0828.6,4.99,0.00,22.4,22.0,00.0,31.4,24.0,04.3,0000.0,0005.05,0003.83,0003.61
2022-02-03 06:02:00,,0828.7,5.00,0.00,22.5,22.8,00.0,31.4,24.3,04.3,0000.0,0005.31,0003.87,0003.61
2022-02-03 06:03:00,,0828.9,4.99,0.00,22.6,23.2,00.0,31.5,24.5,04.2,0000.0,0005.58,0003.88,0003.62
2022-02-03 06:04:00,,0828.6,4.99,0.00,22.7,22.9,00.0,31.5,24.5,04.2,0000.0,0005.60,0003.87,0003.62
2022-02-03 06:05:00,,0828.9,5.01,0.00,22.6,22.6,00.0,31.5,24.4,04.2,0000.0,0006.88,0003.87,0003.61
2022-02-03 06:06:00,,0828.6,5.00,0.00,22.6,22.2,00.0,31.5,24.3,04.2,0000.0,0007.49,0003.90,0003.61
2022-02-03 06:07:00,,0828.8,5.00,0.00,22.6,22.0,00.0,31.5,24.3,04.2,0000.0,0007.54,0003.91,0003.61
2022-02-03 06:08:00,,0828.9,5.02,0.00,22.5,21.7,00.0,31.5,24.2,04.2,0000.0,0007.56,0003.90,0003.61
2022-02-03 06:09:00,,0829.1,4.98,0.00,22.5,21.6,00.0,31.5,24.1,04.3,0000.0,0007.67,0003.94,0003.62
2022-02-03 06:10:00,,0829.1,5.02,0.00,22.4,21.4,00.0,31.4,24.0,04.3,0000.0,0007.78,0003.97,0003.63
2022-02-03 06:11:00,,0829.1,4.98,0.00,22.4,21.3,00.0,31.4,23.9,04.3,0000.0,0007.82,0003.98,0003.64
2022-02-03 06:12:00,,0829.1,5.01,0.00,22.3,21.5,00.0,31.4,23.9,04.3,0000.0,0007.81,0003.96,0003.65
2022-02-03 06:13:00,,0829.0,4.98,0.00,22.4,22.2,00.0,31.4,24.1,04.3,0000.0,0007.73,0003.94,0003.66
2022-02-03 06:14:00,,0829.0,5.00,0.00,22.5,22.9,00.0,31.5,24.3,04.2,0000.0,0007.70,0003.95,0003.65
2022-02-03 06:15:00,,0828.7,5.00,0.00,22.6,23.1,00.0,31.5,24.5,04.2,0000.0,0007.80,0003.96,0003.65
2022-02-03 06:16:00,,0828.5,5.00,0.00,22.6,22.8,00.0,31.5,24.4,04.2,0000.0,0006.82,0003.95,0003.65
2022-02-03 06:17:00,,0828.4,4.99,0.00,22.6,22.4,00.0,31.5,24.4,04.2,0000.0,0006.09,0003.91,0003.64
2022-02-03 06:18:00,,0828.5,5.00,0.00,22.6,22.1,00.0,31.5,24.3,04.2,0000.0,0006.20,0003.89,0003.63
2022-02-03 06:19:00,,0828.5,5.00,0.00,22.5,21.9,00.0,31.5,24.2,04.2,0000.0,0006.69,0003.90,0003.64
2022-02-03 06:20:00,,0828.4,5.01,0.00,22.5,21.7,00.0,31.5,24.1,04.2,0000.0,0006.83,0003.87,0003.63
2022-02-03 06:21:00,,0828.4,4.99,0.00,22.4,21.6,00.0,31.5,24.1,04.2,0000.0,0006.59,0003.84,0003.63
2022-02-03 06:22:00,,0828.4,5.01,0.00,22.4,21.4,00.0,31.4,24.0,04.2,0000.0,0006.50,0003.83,0003.63
2022-02-03 06:23:00,,0828.4,4.99,0.00,22.3,21.5,00.0,31.4,24.0,04.3,0000.0,0006.42,0003.82,0003.63
2022-02-03 06:24:00,,0828.4,5.00,0.00,22.4,22.1,00.0,31.4,24.1,04.2,0000.0,0006.44,0003.84,0003.63
2022-02-03 06:25:00,,0828.4,4.99,0.00,22.5,22.8,00.0,31.5,24.3,04.2,0000.0,0006.43,0003.85,0003.63
2022-02-03 06:26:00,,0828.4,5.00,0.00,22.6,23.1,00.0,31.5,24.5,04.2,0000.0,0006.06,0003.85,0003.63
2022-02-03 06:27:00,,0828.4,5.00,0.00,22.6,22.8,00.0,31.5,24.5,04.2,0000.0,0005.98,0003.84,0003.64
2022-02-03 06:28:00,,0828.4,5.00,0.00,22.6,22.5,00.0,31.5,24.4,04.2,0000.0,0006.15,0003.86,0003.64
2022-02-03 06:29:00,,0828.4,5.01,0.00,22.6,22.2,00.0,31.5,24.3,04.2,0000.0,0006.03,0003.88,0003.66
2022-02-03 06:30:00,,0828.3,4.98,0.00,22.6,22.0,00.0,31.5,24.2,04.2,0000.0,0005.69,0003.89,0003.65
2022-02-03 06:31:00,,0828.3,5.01,0.00,22.5,21.8,00.0,31.5,24.1,04.2,0000.0,0005.40,0003.91,0003.65
2022-02-03 06:32:00,,0828.3,5.00,0.00,22.4,21.7,00.0,31.5,24.0,04.2,0000.0,0005.48,0003.92,0003.65
2022-02-03 06:33:00,,0828.3,4.99,0.00,22.4,21.5,00.0,31.4,23.9,04.2,0000.0,0005.61,0003.96,0003.66
2022-02-03 06:34:00,,0828.3,5.01,0.00,22.3,21.7,00.0,31.4,23.9,04.2,0000.0,0005.66,0003.97,0003.66
2022-02-03 06:35:00,,0828.2,4.99,0.00,22.4,22.3,00.0,31.4,24.1,04.2,0000.0,0005.62,0003.96,0003.65
2022-02-03 06:36:00,,0828.2,4.99,0.00,22.6,23.0,00.0,31.5,24.4,04.2,0000.0,0005.58,0003.95,0003.64
2022-02-03 06:37:00,,0828.2,5.01,0.00,22.6,23.0,00.0,31.5,24.5,04.2,0000.0,0005.57,0003.93,0003.64
2022-02-03 06:38:00,,0828.2,5.00,0.00,22.7,22.7,00.0,31.5,24.5,04.2,0000.0,0005.55,0003.93,0003.63
2022-02-03 06:39:00,,0828.2,5.00,0.00,22.6,22.4,00.0,31.5,24.4,04.2,0000.0,0005.38,0003.91,0003.63
2022-02-03 06:40:00,,0828.5,5.02,0.00,22.6,22.1,00.0,31.5,24.3,04.2,0000.0,0005.27,0003.88,0003.62
2022-02-03 06:41:00,,0828.3,4.98,0.00,22.5,21.9,00.0,31.5,24.2,04.2,0000.0,0005.21,0003.87,0003.62
2022-02-03 06:42:00,,0828.2,5.00,0.00,22.5,21.7,00.0,31.5,24.1,04.2,0000.0,0005.05,0003.85,0003.62
2022-02-03 06:43:00,,0828.4,5.01,0.00,22.4,21.5,00.0,31.4,23.9,04.2,0000.0,0005.19,0003.86,0003.63
2022-02-03 06:44:00,,0828.3,4.99,0.00,22.3,21.5,00.0,31.4,23.9,04.2,0000.0,0006.08,0003.80,0003.61
2022-02-03 06:45:00,,0828.4,5.00,0.00,22.4,22.1,00.0,31.4,24.0,04.2,0000.0,0006.10,0003.79,0003.61
2022-02-03 06:46:00,,0828.2,5.00,0.00,22.5,22.9,00.0,31.5,24.3,04.2,0000.0,0006.09,0003.78,0003.60
2022-02-03 06:47:00,,0828.3,5.00,0.00,22.6,23.4,00.0,31.5,24.5,04.2,0000.0,0006.04,0003.78,0003.60
2022-02-03 06:48:00,,0828.1,5.01,0.00,22.7,23.2,00.0,31.5,24.5,04.1,0000.0,0006.02,0003.80,0003.61
2022-02-03 06:49:00,,0828.1,5.01,0.00,22.6,22.7,00.0,31.5,24.3,04.1,0000.0,0006.09,0003.82,0003.63
2022-02-03 06:50:00,,0828.1,4.99,0.00,22.5,22.3,00.0,31.5,24.1,04.2,0000.0,0006.13,0003.84,0003.64
2022-02-03 06:51:00,,0828.0,5.00,0.00,22.4,22.0,00.0,31.5,23.9,04.2,0000.0,0006.18,0003.87,0003.66
2022-02-03 06:52:00,,0828.0,5.01,0.00,22.4,21.7,00.0,31.4,23.9,04.2,0000.0,0006.31,0003.91,0003.69
2022-02-03 06:53:00,,0828.0,4.99,0.00,22.3,21.6,00.0,31.4,23.9,04.2,0000.0,0006.46,0003.97,0003.73
2022-02-03 06:54:00,,0827.9,5.01,0.00,22.3,21.4,00.0,31.4,23.8,04.2,0000.0,0006.32,0003.99,0003.76
2022-02-03 06:55:00,,0828.0,4.99,0.00,22.3,21.7,00.0,31.4,23.9,04.2,0000.0,0005.38,0004.01,0003.78
2022-02-03 06:56:00,,0828.5,5.01,0.00,22.3,22.4,00.0,31.4,24.1,04.2,0000.0,0005.38,0004.06,0003.81
2022-02-03 06:57:00,,0828.2,4.98,0.00,22.5,23.0,00.0,31.4,24.3,04.1,0000.0,0005.44,0004.10,0003.85
2022-02-03 06:58:00,,0828.2,5.01,0.00,22.5,22.8,00.0,31.4,24.3,04.1,0000.0,0005.51,0004.13,0003.89
2022-02-03 06:59:00,,0828.1,5.00,0.00,22.5,22.4,00.0,31.4,24.1,04.1,0000.0,0005.60,0004.16,0003.93
